When you browse on this site, cookies collect data to enhance your experience and personalize the content and advertising you see.
Visit our Privacy Policy to learn more. By continuing to use the site, you agree to this use of cookies and data.
  • In Deutschland
  • Länderverzeichnis
  • Für 7 Tage
  • Wassertemperatur
  • Wetterkarte
  • Widgets
  • user-avatar
    Anmelden

    Stündliche Wetter Julara

    Heute, 25 Mai, Montag

    Zeit Temperatur Niederschläge Wind Luftdruck Luftfeuchtigkeit
    00:00 +10°C° 0 mm 3 m/S 721 mmHg 53%
    01:00 +9°C° 0 mm 3 m/S 721 mmHg 56%
    02:00 +8°C° 0 mm 4 m/S 721 mmHg 58%
    03:00 +7°C° 0 mm 4 m/S 720 mmHg 63%
    04:00 +7°C° 0 mm 4 m/S 720 mmHg 66%
    05:00 +6°C° 0 mm 4 m/S 720 mmHg 69%
    06:00 +7°C° 0 mm 3 m/S 720 mmHg 72%
    07:00 +8°C° 0 mm 4 m/S 720 mmHg 65%
    08:00 +10°C° 0 mm 4 m/S 720 mmHg 58%
    09:00 +13°C° 0 mm 5 m/S 720 mmHg 49%
    10:00 +15°C° 0 mm 5 m/S 720 mmHg 42%
    11:00 +17°C° 0 mm 5 m/S 720 mmHg 35%
    12:00 +20°C° 0 mm 6 m/S 719 mmHg 28%
    13:00 +21°C° 0 mm 5 m/S 719 mmHg 24%
    14:00 +23°C° 0 mm 5 m/S 718 mmHg 21%
    15:00 +25°C° 0 mm 5 m/S 718 mmHg 17%
    16:00 +22°C° 0 mm 4 m/S 718 mmHg 20%
    17:00 +19°C° 0 mm 3 m/S 718 mmHg 23%
    18:00 +17°C° 0 mm 3 m/S 718 mmHg 26%
    19:00 +16°C° 0 mm 3 m/S 718 mmHg 28%
    20:00 +16°C° 0 mm 2 m/S 719 mmHg 31%
    21:00 +15°C° 0 mm 2 m/S 719 mmHg 33%
    22:00 +15°C° 0 mm 2 m/S 719 mmHg 33%
    23:00 +16°C° 0 mm 3 m/S 719 mmHg 32%

    Morgen, 26 Mai, Dienstag

    Zeit Temperatur Niederschläge Wind Luftdruck Luftfeuchtigkeit
    00:00 +16°C° 0 mm 3 m/S 719 mmHg 32%
    01:00 +16°C° 0 mm 3 m/S 719 mmHg 32%
    02:00 +16°C° 0 mm 3 m/S 718 mmHg 32%
    03:00 +16°C° 0 mm 2 m/S 718 mmHg 33%
    04:00 +16°C° 0 mm 3 m/S 718 mmHg 33%
    05:00 +15°C° 0 mm 4 m/S 718 mmHg 34%
    06:00 +15°C° 0 mm 5 m/S 719 mmHg 35%
    07:00 +15°C° 0 mm 5 m/S 719 mmHg 42%
    08:00 +15°C° 0 mm 6 m/S 719 mmHg 49%
    09:00 +15°C° 0 mm 6 m/S 719 mmHg 56%
    10:00 +16°C° 0 mm 6 m/S 719 mmHg 53%
    11:00 +17°C° 0 mm 7 m/S 719 mmHg 49%
    12:00 +18°C° 0 mm 7 m/S 719 mmHg 46%
    13:00 +20°C° 0 mm 7 m/S 719 mmHg 46%
    14:00 +20°C° 0 mm 7 m/S 718 mmHg 46%
    15:00 +21°C° 0 mm 7 m/S 718 mmHg 45%
    16:00 +19°C° 0 mm 6 m/S 718 mmHg 49%
    17:00 +17°C° 0 mm 5 m/S 719 mmHg 53%
    18:00 +17°C° 0 mm 4 m/S 719 mmHg 58%
    19:00 +15°C° 0 mm 4 m/S 720 mmHg 59%
    20:00 +16°C° 0 mm 3 m/S 720 mmHg 61%
    21:00 +16°C° 0 mm 3 m/S 721 mmHg 63%
    22:00 +16°C° 0 mm 3 m/S 721 mmHg 65%
    23:00 +14°C° 0 mm 3 m/S 720 mmHg 68%

    übermorgen, 27 Mai, Mittwoch

    Zeit Temperatur Niederschläge Wind Luftdruck Luftfeuchtigkeit
    00:00 +15°C° 0 mm 2 m/S 720 mmHg 70%
    01:00 +14°C° 0 mm 2 m/S 720 mmHg 72%
    02:00 +14°C° 0 mm 2 m/S 720 mmHg 74%
    03:00 +14°C° 0 mm 2 m/S 720 mmHg 75%
    04:00 +13°C° 0 mm 2 m/S 720 mmHg 77%
    05:00 +13°C° 0 mm 2 m/S 720 mmHg 79%
    06:00 +12°C° 0 mm 2 m/S 720 mmHg 81%
    07:00 +12°C° 0 mm 3 m/S 721 mmHg 76%
    08:00 +14°C° 0 mm 3 m/S 721 mmHg 71%
    09:00 +15°C° 0 mm 4 m/S 722 mmHg 66%
    10:00 +18°C° 0 mm 3 m/S 722 mmHg 58%
    11:00 +19°C° 0 mm 3 m/S 721 mmHg 50%
    12:00 +21°C° 0 mm 2 m/S 721 mmHg 43%
    13:00 +21°C° 0 mm 2 m/S 720 mmHg 41%
    14:00 +23°C° 0 mm 2 m/S 720 mmHg 39%
    15:00 +23°C° 0 mm 2 m/S 719 mmHg 37%
    16:00 +21°C° 0 mm 2 m/S 719 mmHg 43%
    17:00 +19°C° 0 mm 3 m/S 719 mmHg 48%
    18:00 +17°C° 0 mm 3 m/S 719 mmHg 54%
    19:00 +17°C° 0 mm 3 m/S 720 mmHg 56%
    20:00 +16°C° 0 mm 3 m/S 720 mmHg 58%
    21:00 +14°C° 0 mm 4 m/S 721 mmHg 60%
    22:00 +14°C° 0 mm 3 m/S 721 mmHg 62%
    23:00 +13°C° 0 mm 3 m/S 721 mmHg 64%

    28 Mai, Donnerstag

    Zeit Temperatur Niederschläge Wind Luftdruck Luftfeuchtigkeit
    00:00 +13°C° 0 mm 3 m/S 721 mmHg 66%
    01:00 +12°C° 0 mm 3 m/S 721 mmHg 68%
    02:00 +12°C° 0 mm 3 m/S 721 mmHg 70%
    03:00 +12°C° 0 mm 2 m/S 721 mmHg 72%
    04:00 +12°C° 0 mm 2 m/S 721 mmHg 73%
    05:00 +10°C° 0 mm 3 m/S 721 mmHg 74%
    06:00 +10°C° 0 mm 3 m/S 722 mmHg 76%
    07:00 +12°C° 0 mm 3 m/S 722 mmHg 67%
    08:00 +14°C° 0 mm 4 m/S 722 mmHg 59%
    09:00 +15°C° 0 mm 5 m/S 723 mmHg 50%
    10:00 +18°C° 0 mm 4 m/S 723 mmHg 45%
    11:00 +20°C° 0 mm 4 m/S 723 mmHg 39%
    12:00 +23°C° 0 mm 4 m/S 722 mmHg 34%
    13:00 +24°C° 0 mm 3 m/S 722 mmHg 30%
    14:00 +25°C° 0 mm 3 m/S 721 mmHg 27%
    15:00 +26°C° 0 mm 3 m/S 720 mmHg 24%
    16:00 +22°C° 0 mm 3 m/S 720 mmHg 28%
    17:00 +20°C° 0 mm 3 m/S 721 mmHg 31%
    18:00 +18°C° 0 mm 3 m/S 721 mmHg 35%
    19:00 +17°C° 0 mm 4 m/S 721 mmHg 36%
    20:00 +15°C° 0 mm 4 m/S 721 mmHg 38%
    21:00 +15°C° 0 mm 5 m/S 722 mmHg 39%
    22:00 +14°C° 0 mm 4 m/S 722 mmHg 41%
    23:00 +13°C° 0 mm 4 m/S 722 mmHg 44%

    29 Mai, Freitag

    Zeit Temperatur Niederschläge Wind Luftdruck Luftfeuchtigkeit
    00:00 +12°C° 0 mm 4 m/S 721 mmHg 46%
    01:00 +12°C° 0 mm 4 m/S 721 mmHg 48%
    02:00 +11°C° 0 mm 4 m/S 721 mmHg 49%
    03:00 +11°C° 0 mm 4 m/S 721 mmHg 50%
    04:00 +10°C° 0 mm 4 m/S 721 mmHg 52%
    05:00 +9°C° 0 mm 3 m/S 721 mmHg 53%
    06:00 +9°C° 0 mm 3 m/S 721 mmHg 55%
    07:00 +11°C° 0 mm 3 m/S 722 mmHg 48%
    08:00 +13°C° 0 mm 4 m/S 722 mmHg 42%
    09:00 +15°C° 0 mm 4 m/S 723 mmHg 36%
    10:00 +19°C° 0 mm 4 m/S 722 mmHg 32%
    11:00 +22°C° 0 mm 4 m/S 722 mmHg 27%
    12:00 +25°C° 0 mm 4 m/S 721 mmHg 23%
    13:00 +26°C° 0 mm 4 m/S 721 mmHg 22%
    14:00 +27°C° 0 mm 3 m/S 720 mmHg 22%
    15:00 +27°C° 0 mm 3 m/S 719 mmHg 21%
    16:00 +25°C° 0 mm 3 m/S 719 mmHg 24%
    17:00 +23°C° 0 mm 2 m/S 719 mmHg 28%
    18:00 +20°C° 0 mm 2 m/S 719 mmHg 31%
    19:00 +20°C° 0 mm 3 m/S 719 mmHg 30%
    20:00 +21°C° 0 mm 3 m/S 720 mmHg 28%
    21:00 +21°C° 0 mm 3 m/S 720 mmHg 27%
    22:00 +20°C° 0 mm 4 m/S 720 mmHg 27%
    23:00 +20°C° 0 mm 4 m/S 719 mmHg 27%

    30 Mai, Samstag

    Zeit Temperatur Niederschläge Wind Luftdruck Luftfeuchtigkeit
    00:00 +19°C° 0 mm 5 m/S 719 mmHg 28%
    01:00 +19°C° 0 mm 4 m/S 719 mmHg 28%
    02:00 +19°C° 0 mm 4 m/S 719 mmHg 29%
    03:00 +19°C° 0 mm 3 m/S 719 mmHg 29%
    04:00 +19°C° 0 mm 4 m/S 719 mmHg 30%
    05:00 +19°C° 0 mm 4 m/S 719 mmHg 30%
    06:00 +19°C° 0 mm 4 m/S 719 mmHg 31%
    07:00 +20°C° 0 mm 6 m/S 719 mmHg 29%
    08:00 +21°C° 0 mm 8 m/S 719 mmHg 28%
    09:00 +22°C° 0 mm 9 m/S 719 mmHg 26%
    10:00 +23°C° 0 mm 10 m/S 719 mmHg 27%
    11:00 +24°C° 0 mm 10 m/S 719 mmHg 27%
    12:00 +27°C° 0 mm 10 m/S 718 mmHg 28%
    13:00 +27°C° 0 mm 11 m/S 718 mmHg 28%
    14:00 +27°C° 0 mm 11 m/S 718 mmHg 29%
    15:00 +27°C° 0 mm 11 m/S 718 mmHg 30%
    16:00 +23°C° 0.1 mm 10 m/S 718 mmHg 45%
    17:00 +19°C° 0.1 mm 9 m/S 718 mmHg 61%
    18:00 +16°C° 0.1 mm 8 m/S 719 mmHg 76%
    19:00 +16°C° 0.1 mm 6 m/S 719 mmHg 76%
    20:00 +16°C° 0.1 mm 5 m/S 720 mmHg 76%
    21:00 +17°C° 0.1 mm 3 m/S 720 mmHg 77%
    22:00 +16°C° 0 mm 3 m/S 720 mmHg 76%
    23:00 +14°C° 0 mm 3 m/S 720 mmHg 76%
    Mehr zeigen